DW5785 Weather Reports


Display with metric or nautical units.
time (UTC)temp
F
wind
direction
speed
MPH
gust
MPH
rain 1hr
in
rain 24hr
in
rain mn
in
humidity
%
barometer
mb
20260902212542 65 146 3.0 6.0 0.00 0.00 0.00 69 1021.1
20260902212044 65 152 4.0 6.0 0.00 0.00 0.00 69 1021.1
20260902211542 66 121 3.0 7.0 0.00 0.00 0.00 69 1021.1
20260902211048 65 160 4.0 5.0 0.00 0.00 0.00 70 1021.1
20260902210548 65 139 3.0 7.0 0.00 0.00 0.00 71 1021.1
20260902210048 65 136 5.0 7.0 0.00 0.00 0.00 71 1021.1
20260902205544 65 159 5.0 6.0 0.00 0.00 0.00 71 1021.1
20260902205045 65 173 5.0 7.0 0.00 0.00 0.00 72 1021.1
20260902204542 65 148 5.0 6.0 0.00 0.00 0.00 71 1021.0
20260902204042 65 131 5.0 7.0 0.00 0.00 0.00 71 1021.1
20260902203542 66 160 5.0 8.0 0.00 0.00 0.00 70 1021.0
20260902203044 66 151 3.0 4.0 0.00 0.00 0.00 71 1020.9
20260902202545 66 166 3.0 5.0 0.00 0.00 0.00 71 1020.9
20260902202045 66 193 2.0 2.0 0.00 0.00 0.00 71 1020.9
20260902201542 66 193 1.0 3.0 0.00 0.00 0.00 71 1020.8
20260902201044 65 220 1.0 2.0 0.00 0.00 0.00 71 1020.8
20260902200545 65 231 1.0 3.0 0.00 0.00 0.00 71 1020.8
20260902200045 66 255 3.0 4.0 0.00 0.00 0.00 70 1020.8
20260902195548 66 249 1.0 5.0 0.00 0.00 0.00 69 1020.7
20260902195048 66 282 2.0 4.0 0.00 0.00 0.00 68 1020.8
20260902194544 66 258 2.0 5.0 0.00 0.00 0.00 68 1020.8
20260902194051 66 282 3.0 5.0 0.00 0.00 0.00 67 1020.8
20260902193542 66 294 2.0 5.0 0.00 0.00 0.00 67 1020.8
20260902193048 67 277 4.0 6.0 0.00 0.00 0.00 66 1020.8
20260902192545 67 255 3.0 5.0 0.00 0.00 0.00 65 1020.8
20260902192048 67 245 3.0 5.0 0.00 0.00 0.00 64 1020.8
20260902191547 67 266 3.0 5.0 0.00 0.00 0.00 64 1020.7
20260902191042 68 247 1.0 4.0 0.00 0.00 0.00 63 1020.7
20260902190542 68 262 3.0 5.0 0.00 0.00 0.00 62 1020.8
20260902190045 68 244 3.0 5.0 0.00 0.00 0.00 61 1020.7
20260902185550 69 208 1.0 7.0 0.00 0.00 0.00 60 1020.7
20260902185042 69 192 4.0 10.0 0.00 0.00 0.00 60 1020.7
20260902184548 69 211 3.0 12.0 0.00 0.00 0.00 60 1020.7
20260902184045 69 203 6.0 11.0 0.00 0.00 0.00 61 1020.6
20260902183542 69 151 4.0 8.0 0.00 0.00 0.00 59 1020.6
20260902183042 70 181 4.0 12.0 0.00 0.00 0.00 57 1020.5
20260902182550 71 221 8.0 14.0 0.00 0.00 0.00 55 1020.5
20260902182045 72 173 11.0 10.0 0.00 0.00 0.00 51 1020.4
20260902181545 72 205 2.0 7.0 0.00 0.00 0.00 51 1020.1
20260902181045 72 161 5.0 9.0 0.00 0.00 0.00 50 1019.9
20260902180542 72 130 4.0 6.0 0.00 0.00 0.00 50 1019.9
20260902180042 72 178 3.0 6.0 0.00 0.00 0.00 51 1019.8
20260902175544 72 158 4.0 5.0 0.00 0.00 0.00 51 1019.8
20260902175045 72 150 3.0 7.0 0.00 0.00 0.00 51 1019.7
20260902174551 72 167 5.0 6.0 0.00 0.00 0.00 51 1019.6
20260902174045 72 148 4.0 5.0 0.00 0.00 0.00 50 1019.6
20260902173545 72 168 2.0 4.0 0.00 0.00 0.00 50 1019.7
20260902173042 72 187 1.0 3.0 0.00 0.00 0.00 50 1019.6
20260902172544 72 187 2.0 3.0 0.00 0.00 0.00 50 1019.7
20260902172042 73 143 1.0 3.0 0.00 0.00 0.00 50 1019.6
20260902171542 73 160 2.0 5.0 0.00 0.00 0.00 50 1019.6
20260902171045 73 118 4.0 4.0 0.00 0.00 0.00 49 1019.6
20260902170545 73 160 3.0 4.0 0.00 0.00 0.00 50 1019.6
20260902170042 73 136 2.0 5.0 0.00 0.00 0.00 49 1019.6
20260902165544 73 156 3.0 5.0 0.00 0.00 0.00 49 1019.6
20260902165042 73 160 2.0 5.0 0.00 0.00 0.00 49 1019.6
20260902164548 73 119 3.0 5.0 0.00 0.00 0.00 48 1019.7
20260902164051 73 112 2.0 4.0 0.00 0.00 0.00 47 1019.7
20260902163545 73 144 2.0 4.0 0.00 0.00 0.00 47 1019.7
20260902163045 74 166 4.0 5.0 0.00 0.00 0.00 47 1019.7
20260902162544 74 151 3.0 8.0 0.00 0.00 0.00 47 1019.7
20260902162042 74 122 3.0 7.0 0.00 0.00 0.00 47 1019.7
20260902161542 75 167 4.0 8.0 0.00 0.00 0.00 47 1019.6
20260902161045 75 112 6.0 7.0 0.00 0.00 0.00 46 1019.6
20260902160542 75 23 1.0 5.0 0.00 0.00 0.00 48 1019.6
20260902160045 74 86 5.0 8.0 0.00 0.00 0.00 47 1019.6
20260902155547 74 95 2.0 8.0 0.00 0.00 0.00 47 1019.6
20260902155051 74 89 5.0 7.0 0.00 0.00 0.00 48 1019.6
20260902154545 74 88 5.0 9.0 0.00 0.00 0.00 47 1019.6
20260902154042 74 60 4.0 6.0 0.00 0.00 0.00 48 1019.7
20260902153545 74 133 2.0 5.0 0.00 0.00 0.00 48 1019.7
20260902153042 74 68 2.0 7.0 0.00 0.00 0.00 47 1019.7
20260902152544 74 179 7.0 7.0 0.00 0.00 0.00 47 1019.8
20260902152045 75 121 3.0 8.0 0.00 0.00 0.00 46 1019.9
20260902151542 75 140 6.0 9.0 0.00 0.00 0.00 46 1019.8
20260902151042 76 164 2.0 6.0 0.00 0.00 0.00 46 1019.8
20260902150542 75 186 2.0 6.0 0.00 0.00 0.00 47 1019.9
20260902150042 74 220 5.0 6.0 0.00 0.00 0.00 47 1020.0
20260902145544 74 199 5.0 9.0 0.00 0.00 0.00 47 1020.1
20260902145042 74 172 7.0 9.0 0.00 0.00 0.00 47 1020.0
20260902144545 75 227 4.0 7.0 0.00 0.00 0.00 46 1020.1
20260902144045 75 180 1.0 10.0 0.00 0.00 0.00 46 1020.1
20260902143542 76 155 8.0 11.0 0.00 0.00 0.00 45 1020.1
20260902143045 76 69 0.0 7.0 0.00 0.00 0.00 45 1020.1
20260902142544 76 237 2.0 7.0 0.00 0.00 0.00 45 1020.1
20260902142048 76 241 6.0 8.0 0.00 0.00 0.00 46 1020.2
20260902141542 75 237 5.0 8.0 0.00 0.00 0.00 45 1020.2
20260902141048 75 287 1.0 6.0 0.00 0.00 0.00 45 1020.2
20260902140542 75 87 1.0 8.0 0.00 0.00 0.00 46 1020.2
20260902140042 74 183 2.0 8.0 0.00 0.00 0.00 46 1020.2
20260902135546 75 208 6.0 11.0 0.00 0.00 0.00 44 1020.2
20260902135048 76 215 9.0 9.0 0.00 0.00 0.00 44 1020.3
20260902134551 76 139 4.0 10.0 0.00 0.00 0.00 44 1020.3
20260902134045 76 199 5.0 8.0 0.00 0.00 0.00 44 1020.4
20260902133548 75 249 1.0 5.0 0.00 0.00 0.00 45 1020.3
20260902133042 75 207 3.0 8.0 0.00 0.00 0.00 46 1020.4
20260902132550 74 171 1.0 7.0 0.00 0.00 0.00 46 1020.4
20260902132045 74 194 2.0 7.0 0.00 0.00 0.00 46 1020.4
20260902131542 74 206 5.0 11.0 0.00 0.00 0.00 46 1020.5
20260902131042 74 151 6.0 9.0 0.00 0.00 0.00 46 1020.5
20260902130545 74 168 6.0 7.0 0.00 0.00 0.00 46 1020.6
20260902130045 74 93 5.0 9.0 0.00 0.00 0.00 46 1020.6
20260902125544 73 156 4.0 10.0 0.00 0.00 0.00 46 1020.6
20260902125045 74 134 7.0 14.0 0.00 0.00 0.00 45 1020.7
20260902124548 75 114 2.0 10.0 0.00 0.00 0.00 44 1020.7
20260902124048 75 143 2.0 8.0 0.00 0.00 0.00 45 1020.7
20260902123542 75 114 1.0 8.0 0.00 0.00 0.00 46 1020.7
20260902123042 74 127 2.0 7.0 0.00 0.00 0.00 46 1020.7
20260902122544 73 241 3.0 9.0 0.00 0.00 0.00 46 1020.8
20260902122042 73 98 6.0 7.0 0.00 0.00 0.00 48 1020.9
20260902121548 73 155 6.0 14.0 0.00 0.00 0.00 48 1020.9
20260902121045 73 158 5.0 10.0 0.00 0.00 0.00 47 1020.9
20260902120545 74 195 0.0 10.0 0.00 0.00 0.00 46 1020.9
20260902120045 74 149 5.0 7.0 0.00 0.00 0.00 47 1020.9
20260902115547 74 201 4.0 5.0 0.00 0.00 0.00 48 1020.9
20260902115042 74 150 2.0 6.0 0.00 0.00 0.00 47 1021.0
20260902114545 74 146 3.0 9.0 0.00 0.00 0.00 47 1020.9
20260902114042 74 144 3.0 7.0 0.00 0.00 0.00 48 1020.9
20260902113545 73 170 3.0 10.0 0.00 0.00 0.00 49 1021.1
20260902113047 73 189 3.0 11.0 0.00 0.00 0.00 49 1021.2
20260902112545 73 163 11.0 12.0 0.00 0.00 0.00 48 1021.2
20260902112042 72 239 2.0 11.0 0.00 0.00 0.00 49 1021.3
20260902111542 73 209 5.0 10.0 0.00 0.00 0.00 48 1021.3
20260902111045 73 181 4.0 12.0 0.00 0.00 0.00 49 1021.3
20260902110542 73 141 9.0 12.0 0.00 0.00 0.00 49 1021.4
20260902110044 72 168 3.0 6.0 0.00 0.00 0.00 49 1021.4
20260902105542 72 291 1.0 10.0 0.00 0.00 0.00 51 1021.5
20260902105045 71 139 6.0 10.0 0.00 0.00 0.00 51 1021.6
20260902104545 71 225 3.0 6.0 0.00 0.00 0.00 54 1021.6
20260902104042 71 199 6.0 10.0 0.00 0.00 0.00 55 1021.6
20260902103553 71 203 4.0 9.0 0.00 0.00 0.00 55 1021.5
20260902103042 71 202 5.0 9.0 0.00 0.00 0.00 54 1021.6
20260902102542 71 211 5.0 8.0 0.00 0.00 0.00 55 1021.6
20260902102051 71 150 6.0 7.0 0.00 0.00 0.00 54 1021.6
20260902101545 72 189 4.0 10.0 0.00 0.00 0.00 55 1021.6
20260902101042 72 152 2.0 4.0 0.00 0.00 0.00 55 1021.6
20260902100544 72 181 3.0 8.0 0.00 0.00 0.00 56 1021.7
20260902100042 71 154 4.0 8.0 0.00 0.00 0.00 56 1021.7
20260902095542 71 104 0.0 5.0 0.00 0.00 0.00 62 1021.7
20260902095048 70 93 0.0 4.0 0.00 0.00 0.00 62 1021.9
20260902094542 70 37 1.0 5.0 0.00 0.00 0.00 63 1021.8
20260902094048 70 166 1.0 6.0 0.00 0.00 0.00 63 1021.8
20260902093543 70 109 5.0 8.0 0.00 0.00 0.00 62 1021.9
20260902093045 70 164 1.0 5.0 0.00 0.00 0.00 63 1021.9
20260902092551 70 88 2.0 7.0 0.00 0.00 0.00 63 1022.0
20260902092042 70 118 4.0 8.0 0.00 0.00 0.00 64 1021.8
20260902091548 70 134 4.0 8.0 0.00 0.00 0.00 64 1021.9
20260902091045 69 158 3.0 7.0 0.00 0.00 0.00 64 1021.8
20260902090543 70 12 4.0 9.0 0.00 0.00 0.00 64 1021.8
20260902090045 70 4 4.0 6.0 0.00 0.00 0.00 63 1021.8
20260902085542 70 342 3.0 8.0 0.00 0.00 0.00 63 1021.9
20260902085042 70 49 4.0 5.0 0.00 0.00 0.00 64 1021.9
20260902084542 69 332 1.0 4.0 0.00 0.00 0.00 64 1021.8
20260902084042 69 240 1.0 7.0 0.00 0.00 0.00 64 1021.9
20260902083544 69 29 2.0 6.0 0.00 0.00 0.00 65 1021.9
20260902083042 69 74 1.0 5.0 0.00 0.00 0.00 65 1021.9
20260902082548 69 277 2.0 6.0 0.00 0.00 0.00 65 1021.9
20260902082042 68 228 1.0 6.0 0.00 0.00 0.00 66 1021.8
20260902081542 67 187 0.0 2.0 0.00 0.00 0.00 68 1021.9
20260902081045 67 187 1.0 2.0 0.00 0.00 0.00 69 1021.9
20260902080549 66 107 0.0 4.0 0.00 0.00 0.00 68 1022.0
20260902080045 66 82 1.0 5.0 0.00 0.00 0.00 69 1022.1
20260902075542 66 72 4.0 6.0 0.00 0.00 0.00 68 1022.0
20260902075042 66 63 1.0 6.0 0.00 0.00 0.00 68 1021.9
20260902074545 66 51 1.0 5.0 0.00 0.00 0.00 69 1021.9
20260902074045 66 118 3.0 4.0 0.00 0.00 0.00 70 1021.9
20260902073544 66 258 1.0 5.0 0.00 0.00 0.00 69 1022.0
20260902073042 66 35 4.0 5.0 0.00 0.00 0.00 70 1021.9
20260902072545 65 93 2.0 5.0 0.00 0.00 0.00 70 1022.0
20260902072045 65 61 1.0 4.0 0.00 0.00 0.00 70 1022.0
20260902071544 65 48 4.0 4.0 0.00 0.00 0.00 71 1022.0
20260902071042 64 36 0.0 1.0 0.00 0.00 0.00 72 1022.0
20260902070545 64 91 1.0 4.0 0.00 0.00 0.00 73 1022.1
20260902070042 64 89 0.0 2.0 0.00 0.00 0.00 73 1022.1
20260902065542 63 79 2.0 4.0 0.00 0.00 0.00 74 1022.1
20260902065042 63 84 2.0 4.0 0.00 0.00 0.00 74 1022.1
20260902064547 63 67 2.0 5.0 0.00 0.00 0.00 75 1022.0
20260902064045 62 79 1.0 4.0 0.00 0.00 0.00 76 1022.0
20260902063542 62 110 1.0 4.0 0.00 0.00 0.00 76 1022.0
20260902063042 61 123 3.0 4.0 0.00 0.00 0.00 77 1021.9
20260902062548 61 131 1.0 5.0 0.00 0.00 0.00 77 1021.9
20260902062048 60 154 3.0 4.0 0.00 0.00 0.00 78 1022.0
20260902061544 60 155 1.0 4.0 0.00 0.00 0.00 78 1022.0
20260902061042 59 127 2.0 6.0 0.00 0.00 0.00 79 1022.0
20260902060545 59 141 2.0 4.0 0.00 0.00 0.00 80 1022.0
20260902060042 59 103 4.0 4.0 0.00 0.00 0.00 79 1022.0
20260902055545 59 103 3.0 3.0 0.00 0.00 0.00 78 1022.0
20260902055048 59 103 1.0 4.0 0.00 0.00 0.00 78 1022.0
20260902054546 59 150 3.0 6.0 0.00 0.00 0.00 77 1022.0
20260902054045 59 143 5.0 6.0 0.00 0.00 0.00 78 1022.1
20260902053548 59 140 3.0 6.0 0.00 0.00 0.00 78 1022.0
20260902053048 59 174 3.0 4.0 0.00 0.00 0.00 78 1021.9
20260902052542 59 127 2.0 6.0 0.00 0.00 0.00 78 1021.9
20260902052043 59 142 3.0 6.0 0.00 0.00 0.00 78 1021.8
20260902051548 59 145 4.0 5.0 0.00 0.00 0.00 78 1021.8
20260902051045 58 247 1.0 5.0 0.00 0.00 0.00 79 1021.7
20260902050548 58 199 5.0 6.0 0.00 0.00 0.00 79 1021.7
20260902050048 58 149 2.0 6.0 0.00 0.00 0.00 80 1021.7
20260902045548 57 105 2.0 6.0 0.00 0.00 0.00 80 1021.6
20260902045043 57 145 5.0 6.0 0.00 0.00 0.00 80 1021.5
20260902044542 57 248 3.0 7.0 0.00 0.00 0.00 81 1021.5
20260902044048 57 154 5.0 5.0 0.00 0.00 0.00 81 1021.5
20260902043545 57 155 4.0 11.0 0.00 0.00 0.00 81 1021.5
20260902043042 57 163 5.0 8.0 0.00 0.00 0.00 82 1021.5
20260902042549 56 170 6.0 7.0 0.00 0.00 0.00 83 1021.4
20260902042048 56 144 3.0 7.0 0.00 0.00 0.00 84 1021.3
20260902041551 55 164 4.0 4.0 0.00 0.00 0.00 84 1021.4
20260902041045 55 133 2.0 8.0 0.00 0.00 0.00 83 1021.3
20260902040542 56 126 5.0 7.0 0.00 0.00 0.00 82 1021.4
20260902040047 56 95 4.0 5.0 0.00 0.00 0.00 81 1021.3
20260902035542 57 93 2.0 5.0 0.00 0.00 0.00 80 1021.3
20260902035045 57 153 3.0 4.0 0.00 0.00 0.00 81 1021.3
20260902034542 57 158 2.0 5.0 0.00 0.00 0.00 81 1021.4
20260902034042 56 136 2.0 3.0 0.00 0.00 0.00 81 1021.5
20260902033545 57 135 2.0 5.0 0.00 0.00 0.00 80 1021.4
20260902033050 57 138 3.0 5.0 0.00 0.00 0.00 80 1021.5
20260902032542 57 128 5.0 5.0 0.00 0.00 0.00 79 1021.5
20260902032042 58 123 3.0 4.0 0.00 0.00 0.00 78 1021.6
20260902031542 58 129 3.0 4.0 0.00 0.00 0.00 78 1021.6
20260902031047 58 122 3.0 4.0 0.00 0.00 0.00 77 1021.6
20260902030542 58 117 3.0 5.0 0.00 0.00 0.00 76 1021.6
20260902030045 59 128 3.0 5.0 0.00 0.00 0.00 76 1021.6
20260902025545 59 154 1.0 3.0 0.00 0.00 0.00 76 1021.7
20260902025042 59 154 3.0 3.0 0.00 0.00 0.00 75 1021.7
20260902024548 59 134 3.0 4.0 0.00 0.00 0.00 75 1021.7
20260902024050 59 213 2.0 3.0 0.00 0.00 0.00 75 1021.7
20260902023542 59 166 1.0 5.0 0.00 0.00 0.00 74 1021.7
20260902023048 60 161 0.0 5.0 0.00 0.00 0.00 74 1021.7
20260902022548 60 208 1.0 4.0 0.00 0.00 0.00 75 1021.7
20260902022045 59 193 1.0 5.0 0.00 0.00 0.00 75 1021.8
20260902021545 59 187 0.0 2.0 0.00 0.00 0.00 75 1021.8
20260902021053 60 187 1.0 3.0 0.00 0.00 0.00 74 1021.8
20260902020542 60 187 2.0 3.0 0.00 0.00 0.00 73 1021.7
20260902020051 60 157 0.0 3.0 0.00 0.00 0.00 73 1021.7
20260902015545 60 178 4.0 4.0 0.00 0.00 0.00 73 1021.6
20260902015048 60 184 3.0 5.0 0.00 0.00 0.00 73 1021.7
20260902014542 60 160 5.0 7.0 0.00 0.00 0.00 73 1021.6
20260902014046 60 147 3.0 5.0 0.00 0.00 0.00 73 1021.7
20260902013548 60 153 3.0 6.0 0.00 0.00 0.00 73 1021.6
20260902013048 60 131 3.0 5.0 0.00 0.00 0.00 72 1021.6
20260902012542 60 164 3.0 5.0 0.00 0.00 0.00 72 1021.6
20260902012042 60 140 4.0 5.0 0.00 0.00 0.00 71 1021.5
20260902011542 60 158 0.0 7.0 0.00 0.00 0.00 71 1021.5
20260902011046 61 139 6.0 10.0 0.00 0.00 0.00 71 1021.5
20260902010545 60 156 10.0 10.0 0.00 0.00 0.00 71 1021.4
20260902010042 60 127 6.0 9.0 0.00 0.00 0.00 71 1021.5
20260902005542 61 149 7.0 9.0 0.00 0.00 0.00 71 1021.4
20260902005048 61 145 5.0 9.0 0.00 0.00 0.00 70 1021.5
20260902004543 62 167 4.0 8.0 0.00 0.00 0.00 69 1021.6
20260902004048 62 160 5.0 5.0 0.00 0.00 0.00 69 1021.5
20260902003545 62 129 3.0 5.0 0.00 0.00 0.00 68 1021.5
20260902003051 62 160 3.0 7.0 0.00 0.00 0.00 69 1021.5
20260902002542 61 193 3.0 7.0 0.00 0.00 0.00 69 1021.5
20260902002048 61 120 3.0 6.0 0.00 0.00 0.00 69 1021.6
20260902001543 61 127 2.0 7.0 0.00 0.00 0.00 69 1021.7
20260902001048 62 172 7.0 9.0 0.00 0.00 0.00 69 1021.7
20260902000548 62 96 5.0 11.0 0.00 0.00 0.00 69 1021.7
20260902000042 61 129 6.0 11.0 0.00 0.00 0.00 69 1021.7
20260901235542 62 162 9.0 10.0 0.00 0.00 0.00 69 1021.7
20260901235045 62 147 8.0 10.0 0.00 0.00 0.00 68 1021.7
20260901234543 62 145 7.0 8.0 0.00 0.00 0.00 67 1021.7
20260901234042 63 126 5.0 9.0 0.00 0.00 0.00 67 1021.7
20260901233545 62 137 6.0 8.0 0.00 0.00 0.00 68 1021.7
20260901233045 62 122 6.0 6.0 0.00 0.00 0.00 68 1021.7
20260901232545 63 133 4.0 7.0 0.00 0.00 0.00 66 1021.7
20260901232042 65 127 3.0 7.0 0.00 0.00 0.00 62 1021.7
20260901231546 65 125 4.0 5.0 0.00 0.00 0.00 61 1021.7
20260901231042 65 157 3.0 7.0 0.00 0.00 0.00 60 1021.7
20260901230542 65 197 3.0 6.0 0.00 0.00 0.00 61 1021.8
20260901230045 65 180 4.0 8.0 0.00 0.00 0.00 61 1021.8
20260901225542 65 196 2.0 8.0 0.00 0.00 0.00 61 1021.8
20260901225045 65 163 3.0 7.0 0.00 0.00 0.00 62 1021.8
20260901224547 65 119 3.0 7.0 0.00 0.00 0.00 62 1021.8
20260901224042 65 216 3.0 8.0 0.00 0.00 0.00 62 1021.9
20260901223542 64 170 3.0 7.0 0.00 0.00 0.00 63 1021.9
20260901223045 65 141 3.0 5.0 0.00 0.00 0.00 63 1021.9
20260901222548 65 155 2.0 9.0 0.00 0.00 0.00 62 1021.9
20260901222042 65 143 4.0 7.0 0.00 0.00 0.00 62 1021.9
20260901221544 65 214 3.0 6.0 0.00 0.00 0.00 62 1021.9
20260901221048 65 151 2.0 6.0 0.00 0.00 0.00 62 1021.9
20260901220542 65 166 3.0 9.0 0.00 0.00 0.00 62 1021.9
20260901220045 65 130 5.0 7.0 0.00 0.00 0.00 62 1021.9
20260901215548 65 153 4.0 9.0 0.00 0.00 0.00 62 1021.9
20260901215042 65 142 6.0 9.0 0.00 0.00 0.00 61 1021.8
20260901214549 65 180 6.0 9.0 0.00 0.00 0.00 61 1021.8
20260901214042 65 168 5.0 10.0 0.00 0.00 0.00 61 1021.9
20260901213545 65 126 4.0 9.0 0.00 0.00 0.00 61 1021.8
20260901213045 65 151 5.0 8.0 0.00 0.00 0.00 61 1021.7